Time,TemperatureF,DewpointF,PressureIn,WindDirection,WindDirectionDegrees,WindSpeedMPH,WindSpeedGustMPH,Humidity,HourlyPrecipIn,Conditions,Clouds,dailyrainin,SoftwareType,DateUTC
2013-10-02 00:00:00,50.9,46.2,30.12,South,181,2.0,6.0,84,0.00,CLR,,0.00,WeatherDisplay:10.37,2013-10-02 07:00:00,
2013-10-02 00:05:00,50.8,46.1,30.12,South,187,2.0,4.0,84,0.00,CLR,,0.00,WeatherDisplay:10.37,2013-10-02 07:05:00,
2013-10-02 00:10:00,50.8,46.1,30.12,South,185,2.0,5.0,84,0.00,CLR,,0.00,WeatherDisplay:10.37,2013-10-02 07:10:00,
2013-10-02 00:20:00,50.9,46.2,30.12,SSE,153,3.0,5.0,84,0.00,CLR,,0.00,WeatherDisplay:10.37,2013-10-02 07:20:00,
2013-10-02 00:30:00,50.9,45.9,30.12,South,174,2.0,5.0,83,0.00,CLR,,0.00,WeatherDisplay:10.37,2013-10-02 07:30:00,
2013-10-02 00:40:00,50.9,45.9,30.12,SSW,192,2.0,6.0,83,0.00,CLR,,0.00,WeatherDisplay:10.37,2013-10-02 07:40:00,
2013-10-02 00:50:00,50.9,45.9,30.13,South,172,2.0,5.0,83,0.00,CLR,,0.00,WeatherDisplay:10.37,2013-10-02 07:50:00,
2013-10-02 01:00:00,51.1,45.8,30.12,South,185,2.0,5.0,82,0.00,CLR,,0.00,WeatherDisplay:10.37,2013-10-02 08:00:00,
2013-10-02 01:05:00,51.2,46.2,30.12,South,175,2.0,5.0,83,0.00,CLR,,0.00,WeatherDisplay:10.37,2013-10-02 08:05:00,
2013-10-02 01:10:00,51.3,46.0,30.13,SSE,163,2.0,5.0,82,0.00,CLR,,0.00,WeatherDisplay:10.37,2013-10-02 08:10:00,
2013-10-02 01:20:00,51.3,46.0,30.12,SSE,168,3.0,6.0,82,0.00,CLR,,0.00,WeatherDisplay:10.37,2013-10-02 08:20:00,
2013-10-02 01:30:00,51.3,46.3,30.13,South,172,2.0,4.0,83,0.00,CLR,,0.00,WeatherDisplay:10.37,2013-10-02 08:30:00,
2013-10-02 01:40:00,51.3,46.3,30.13,SSE,163,2.0,4.0,83,0.00,CLR,,0.00,WeatherDisplay:10.37,2013-10-02 08:40:00,
2013-10-02 01:50:00,51.3,46.3,30.13,SSE,162,2.0,4.0,83,0.00,CLR,,0.00,WeatherDisplay:10.37,2013-10-02 08:50:00,
2013-10-02 02:00:00,51.3,46.0,30.13,SSE,166,2.0,5.0,82,0.00,CLR,,0.00,WeatherDisplay:10.37,2013-10-02 09:00:00,
2013-10-02 02:05:00,51.3,46.0,30.13,South,170,2.0,5.0,82,0.00,CLR,,0.00,WeatherDisplay:10.37,2013-10-02 09:05:00,
2013-10-02 02:10:00,51.4,46.1,30.14,South,170,2.0,6.0,82,0.00,CLR,,0.00,WeatherDisplay:10.37,2013-10-02 09:10:00,
2013-10-02 02:20:00,51.3,46.3,30.14,South,172,1.0,3.0,83,0.00,CLR,,0.00,WeatherDisplay:10.37,2013-10-02 09:20:00,
2013-10-02 02:30:00,51.3,46.0,30.14,SSE,158,1.0,5.0,82,0.00,CLR,,0.00,WeatherDisplay:10.37,2013-10-02 09:30:00,
2013-10-02 02:40:00,51.2,46.2,30.13,SSE,150,2.0,4.0,83,0.00,CLR,,0.00,WeatherDisplay:10.37,2013-10-02 09:40:00,
2013-10-02 02:50:00,51.1,46.1,30.13,South,174,1.0,5.0,83,0.00,CLR,,0.00,WeatherDisplay:10.37,2013-10-02 09:50:00,
2013-10-02 03:00:00,51.0,46.0,30.12,SSE,160,2.0,4.0,83,0.00,CLR,,0.00,WeatherDisplay:10.37,2013-10-02 10:00:00,
2013-10-02 03:05:00,51.0,46.0,30.12,SSE,148,2.0,4.0,83,0.00,CLR,,0.00,WeatherDisplay:10.37,2013-10-02 10:05:00,
2013-10-02 03:10:00,51.1,45.8,30.13,SSE,162,2.0,5.0,82,0.00,CLR,,0.00,WeatherDisplay:10.37,2013-10-02 10:10:00,
2013-10-02 03:20:00,51.1,46.1,30.13,SSE,154,1.0,3.0,83,0.00,CLR,,0.00,WeatherDisplay:10.37,2013-10-02 10:20:00,
2013-10-02 03:30:00,51.0,46.0,30.12,SSE,159,1.0,3.0,83,0.00,CLR,,0.00,WeatherDisplay:10.37,2013-10-02 10:30:00,
2013-10-02 03:40:00,51.0,46.0,30.12,South,187,1.0,3.0,83,0.00,CLR,,0.00,WeatherDisplay:10.37,2013-10-02 10:40:00,
2013-10-02 03:50:00,51.0,46.0,30.12,South,183,1.0,3.0,83,0.00,CLR,,0.00,WeatherDisplay:10.37,2013-10-02 10:50:00,
2013-10-02 04:00:00,51.0,46.0,30.12,South,174,1.0,4.0,83,0.00,CLR,,0.00,WeatherDisplay:10.37,2013-10-02 11:00:00,
2013-10-02 04:05:00,51.0,46.3,30.12,SSE,168,1.0,3.0,84,0.00,CLR,,0.00,WeatherDisplay:10.37,2013-10-02 11:05:00,
2013-10-02 04:10:00,50.9,45.9,30.12,SSE,150,1.0,3.0,83,0.00,CLR,,0.00,WeatherDisplay:10.37,2013-10-02 11:10:00,
2013-10-02 04:20:00,50.9,45.9,30.12,South,180,2.0,5.0,83,0.00,CLR,,0.00,WeatherDisplay:10.37,2013-10-02 11:20:00,
2013-10-02 04:30:00,51.1,45.8,30.12,South,171,2.0,5.0,82,0.00,CLR,,0.00,WeatherDisplay:10.37,2013-10-02 11:30:00,
2013-10-02 04:40:00,51.1,46.1,30.12,South,189,1.0,3.0,83,0.00,CLR,,0.00,WeatherDisplay:10.37,2013-10-02 11:40:00,
2013-10-02 04:45:00,50.9,46.3,30.12,South,171,1.0,2.0,84,0.00,CLR,,0.00,WeatherDisplay:10.37,2013-10-02 11:45:00,
2013-10-02 04:50:00,50.6,46.6,30.12,SSE,160,1.0,3.0,86,0.00,CLR,,0.00,WeatherDisplay:10.37,2013-10-02 11:50:00,
2013-10-02 05:00:00,50.0,46.6,30.11,South,176,1.0,3.0,88,0.00,CLR,,0.00,WeatherDisplay:10.37,2013-10-02 12:00:00,
2013-10-02 05:05:00,49.8,46.4,30.11,South,171,2.0,3.0,88,0.01,RA,,0.01,WeatherDisplay:10.37,2013-10-02 12:05:00,
2013-10-02 05:10:00,49.7,46.6,30.11,SSE,165,1.0,4.0,89,0.00,RA,,0.01,WeatherDisplay:10.37,2013-10-02 12:10:00,
2013-10-02 05:20:00,49.5,46.4,30.11,South,180,1.0,3.0,89,0.00,RA,,0.01,WeatherDisplay:10.37,2013-10-02 12:20:00,
2013-10-02 05:30:00,49.4,46.3,30.10,SSW,201,2.0,5.0,89,0.00,RA,,0.01,WeatherDisplay:10.37,2013-10-02 12:30:00,
2013-10-02 05:40:00,49.5,46.1,30.10,South,179,1.0,3.0,88,0.00,RA,,0.01,WeatherDisplay:10.37,2013-10-02 12:40:00,
2013-10-02 05:50:00,49.5,46.1,30.10,South,171,1.0,2.0,88,0.00,RA,,0.01,WeatherDisplay:10.37,2013-10-02 12:50:00,
2013-10-02 06:00:00,49.3,46.2,30.10,SSW,196,0.0,1.0,89,0.00,RA,,0.01,WeatherDisplay:10.37,2013-10-02 13:00:00,
2013-10-02 06:05:00,49.4,46.6,30.10,SSW,198,0.0,1.0,90,0.00,RA,,0.01,WeatherDisplay:10.37,2013-10-02 13:05:00,
2013-10-02 06:10:00,49.3,46.5,30.10,SSW,195,0.0,0.0,90,0.00,RA,,0.01,WeatherDisplay:10.37,2013-10-02 13:10:00,
2013-10-02 06:20:00,49.3,46.2,30.10,South,169,2.0,3.0,89,0.01,RA,,0.02,WeatherDisplay:10.37,2013-10-02 13:20:00,
2013-10-02 06:30:00,49.4,46.6,30.10,SSE,149,0.0,0.0,90,0.00,RA,,0.02,WeatherDisplay:10.37,2013-10-02 13:30:00,
2013-10-02 06:40:00,49.1,46.6,30.10,SE,137,0.0,0.0,91,0.00,RA,,0.02,WeatherDisplay:10.37,2013-10-02 13:40:00,
2013-10-02 06:50:00,48.9,46.7,30.10,SE,137,0.0,0.0,92,0.01,RA,,0.03,WeatherDisplay:10.37,2013-10-02 13:50:00,
2013-10-02 07:00:00,48.7,46.5,30.10,SE,137,0.0,0.0,92,0.00,RA,,0.03,WeatherDisplay:10.37,2013-10-02 14:00:00,
2013-10-02 07:05:00,48.6,46.4,30.10,SE,137,0.0,0.0,92,0.00,RA,,0.03,WeatherDisplay:10.37,2013-10-02 14:05:00,
2013-10-02 07:10:00,48.5,46.3,30.10,SE,137,0.0,0.0,92,0.00,RA,,0.03,WeatherDisplay:10.37,2013-10-02 14:10:00,
2013-10-02 07:20:00,48.4,46.2,30.10,SE,138,0.0,0.0,92,0.00,RA,,0.03,WeatherDisplay:10.37,2013-10-02 14:20:00,
2013-10-02 07:30:00,48.3,46.4,30.10,South,172,0.0,0.0,93,0.00,RA,,0.03,WeatherDisplay:10.37,2013-10-02 14:30:00,
2013-10-02 07:40:00,48.3,46.4,30.10,SSW,193,0.0,0.0,93,0.00,RA,,0.03,WeatherDisplay:10.37,2013-10-02 14:40:00,
2013-10-02 07:50:00,48.3,46.4,30.10,SSW,193,0.0,0.0,93,0.00,RA,,0.03,WeatherDisplay:10.37,2013-10-02 14:50:00,
2013-10-02 08:00:00,48.4,46.5,30.10,SSW,194,0.0,0.0,93,0.00,RA,,0.03,WeatherDisplay:10.37,2013-10-02 15:00:00,
2013-10-02 08:05:00,48.5,46.6,30.10,SSW,194,0.0,0.0,93,0.00,RA,,0.03,WeatherDisplay:10.37,2013-10-02 15:05:00,
2013-10-02 08:10:00,48.6,46.7,30.10,SSW,193,0.0,0.0,93,0.00,RA,,0.03,WeatherDisplay:10.37,2013-10-02 15:10:00,
2013-10-02 08:20:00,48.7,47.1,30.10,SSW,192,0.0,0.0,94,0.00,RA,,0.03,WeatherDisplay:10.37,2013-10-02 15:20:00,
2013-10-02 08:30:00,48.9,47.2,30.10,SE,139,0.0,0.0,94,0.01,RA,,0.04,WeatherDisplay:10.37,2013-10-02 15:30:00,
2013-10-02 08:40:00,49.0,47.3,30.10,SE,134,0.0,0.0,94,0.00,RA,,0.04,WeatherDisplay:10.37,2013-10-02 15:40:00,
2013-10-02 08:50:00,49.1,47.4,30.10,SE,134,0.0,0.0,94,0.00,RA,,0.04,WeatherDisplay:10.37,2013-10-02 15:50:00,
2013-10-02 09:00:00,49.3,47.6,30.10,SE,134,0.0,0.0,94,0.00,RA,,0.04,WeatherDisplay:10.37,2013-10-02 16:00:00,
2013-10-02 09:05:00,49.3,47.6,30.10,SE,134,0.0,0.0,94,0.00,RA,,0.04,WeatherDisplay:10.37,2013-10-02 16:05:00,
2013-10-02 09:10:00,49.4,47.7,30.10,SE,134,0.0,0.0,94,0.00,RA,,0.04,WeatherDisplay:10.37,2013-10-02 16:10:00,
2013-10-02 09:20:00,49.6,48.0,30.10,SE,134,0.0,0.0,94,0.01,RA,,0.05,WeatherDisplay:10.37,2013-10-02 16:20:00,
2013-10-02 09:30:00,49.9,48.2,30.10,SE,134,0.0,0.0,94,0.00,RA,,0.05,WeatherDisplay:10.37,2013-10-02 16:30:00,
2013-10-02 09:40:00,50.3,48.6,30.10,SE,134,0.0,0.0,94,0.00,RA,,0.05,WeatherDisplay:10.37,2013-10-02 16:40:00,
2013-10-02 09:50:00,50.2,48.3,30.10,East,82,0.0,0.0,93,0.00,RA,,0.05,WeatherDisplay:10.37,2013-10-02 16:50:00,
2013-10-02 10:00:00,50.2,48.3,30.10,ENE,71,0.0,0.0,93,0.00,RA,,0.05,WeatherDisplay:10.37,2013-10-02 17:00:00,
2013-10-02 10:05:00,50.2,48.3,30.10,ENE,71,0.0,0.0,93,0.00,RA,,0.05,WeatherDisplay:10.37,2013-10-02 17:05:00,
2013-10-02 10:10:00,50.2,48.3,30.10,ENE,71,0.0,0.0,93,0.00,RA,,0.05,WeatherDisplay:10.37,2013-10-02 17:10:00,
2013-10-02 10:20:00,50.3,48.3,30.10,WSW,249,0.0,0.0,93,0.00,RA,,0.05,WeatherDisplay:10.37,2013-10-02 17:20:00,
2013-10-02 10:30:00,50.1,47.9,30.10,SSW,197,0.0,0.0,92,0.00,RA,,0.05,WeatherDisplay:10.37,2013-10-02 17:30:00,
2013-10-02 10:40:00,50.1,47.9,30.10,South,190,0.0,0.0,92,0.00,RA,,0.05,WeatherDisplay:10.37,2013-10-02 17:40:00,
2013-10-02 10:50:00,50.8,48.5,30.10,South,190,0.0,0.0,92,0.00,RA,,0.05,WeatherDisplay:10.37,2013-10-02 17:50:00,
2013-10-02 11:00:00,51.2,49.0,30.10,South,190,0.0,0.0,92,0.00,RA,,0.05,WeatherDisplay:10.37,2013-10-02 18:00:00,
2013-10-02 11:05:00,51.1,48.3,30.10,ESE,116,0.0,0.0,90,0.00,RA,,0.05,WeatherDisplay:10.37,2013-10-02 18:05:00,
2013-10-02 11:10:00,51.1,48.0,30.10,East,98,0.0,0.0,89,0.00,RA,,0.05,WeatherDisplay:10.37,2013-10-02 18:10:00,
2013-10-02 11:20:00,51.6,48.5,30.10,East,98,0.0,0.0,89,0.00,RA,,0.05,WeatherDisplay:10.37,2013-10-02 18:20:00,
2013-10-02 11:30:00,51.6,48.2,30.10,East,98,0.0,0.0,88,0.00,RA,,0.05,WeatherDisplay:10.37,2013-10-02 18:30:00,
2013-10-02 11:40:00,51.6,48.2,30.09,East,97,0.0,0.0,88,0.00,RA,,0.05,WeatherDisplay:10.37,2013-10-02 18:40:00,
2013-10-02 11:50:00,51.4,47.4,30.09,NE,47,0.0,0.0,86,0.00,RA,,0.05,WeatherDisplay:10.37,2013-10-02 18:50:00,
2013-10-02 12:00:00,51.9,48.4,30.09,NE,49,0.0,0.0,88,0.01,RA,,0.06,WeatherDisplay:10.37,2013-10-02 19:00:00,
2013-10-02 12:05:00,52.1,48.6,30.09,NE,51,0.0,0.0,88,0.00,RA,,0.06,WeatherDisplay:10.37,2013-10-02 19:05:00,
2013-10-02 12:10:00,52.2,48.5,30.09,NE,54,0.0,0.0,87,0.00,RA,,0.06,WeatherDisplay:10.37,2013-10-02 19:10:00,
2013-10-02 12:20:00,52.7,48.6,30.09,NE,47,0.0,0.0,86,0.00,RA,,0.06,WeatherDisplay:10.37,2013-10-02 19:20:00,
2013-10-02 12:30:00,52.9,48.8,30.09,NNE,19,0.0,2.0,86,0.00,RA,,0.06,WeatherDisplay:10.37,2013-10-02 19:30:00,
2013-10-02 12:40:00,52.8,48.4,30.09,NE,50,0.0,0.0,85,0.00,RA,,0.06,WeatherDisplay:10.37,2013-10-02 19:40:00,
2013-10-02 12:50:00,52.8,48.4,30.09,SW,232,0.0,0.0,85,0.00,RA,,0.06,WeatherDisplay:10.37,2013-10-02 19:50:00,
2013-10-02 13:00:00,52.3,47.6,30.09,SW,215,0.0,0.0,84,0.00,RA,,0.06,WeatherDisplay:10.37,2013-10-02 20:00:00,
2013-10-02 13:05:00,52.1,47.1,30.09,West,271,0.0,1.0,83,0.00,RA,,0.06,WeatherDisplay:10.37,2013-10-02 20:05:00,
2013-10-02 13:10:00,52.0,47.0,30.08,SE,145,0.0,1.0,83,0.00,RA,,0.06,WeatherDisplay:10.37,2013-10-02 20:10:00,
2013-10-02 13:20:00,52.0,47.0,30.08,ESE,116,0.0,4.0,83,0.00,RA,,0.06,WeatherDisplay:10.37,2013-10-02 20:20:00,
2013-10-02 13:30:00,52.2,47.2,30.08,ENE,72,0.0,3.0,83,0.00,RA,,0.06,WeatherDisplay:10.37,2013-10-02 20:30:00,
2013-10-02 13:40:00,51.9,47.2,30.08,West,265,0.0,5.0,84,0.00,RA,,0.06,WeatherDisplay:10.37,2013-10-02 20:40:00,
2013-10-02 13:50:00,51.4,47.0,30.08,South,169,0.0,0.0,85,0.00,RA,,0.06,WeatherDisplay:10.37,2013-10-02 20:50:00,
2013-10-02 14:00:00,51.9,47.5,30.08,SE,141,0.0,0.0,85,0.00,RA,,0.06,WeatherDisplay:10.37,2013-10-02 21:00:00,
2013-10-02 14:05:00,52.0,47.7,30.08,East,85,0.0,0.0,85,0.00,RA,,0.06,WeatherDisplay:10.37,2013-10-02 21:05:00,
2013-10-02 14:10:00,52.2,48.1,30.07,NE,50,0.0,0.0,86,0.00,RA,,0.06,WeatherDisplay:10.37,2013-10-02 21:10:00,
2013-10-02 14:20:00,52.5,47.8,30.07,NE,56,0.0,0.0,84,0.00,RA,,0.06,WeatherDisplay:10.37,2013-10-02 21:20:00,
2013-10-02 14:30:00,52.9,48.2,30.07,ENE,74,0.0,0.0,84,0.00,RA,,0.06,WeatherDisplay:10.37,2013-10-02 21:30:00,
2013-10-02 14:40:00,53.1,48.7,30.07,ESE,105,0.0,0.0,85,0.00,RA,,0.06,WeatherDisplay:10.37,2013-10-02 21:40:00,
2013-10-02 14:50:00,53.3,47.9,30.07,ESE,112,0.0,0.0,82,0.00,RA,,0.06,WeatherDisplay:10.37,2013-10-02 21:50:00,
2013-10-02 15:00:00,53.3,47.6,30.07,East,90,0.0,0.0,81,0.00,RA,,0.06,WeatherDisplay:10.37,2013-10-02 22:00:00,
2013-10-02 15:05:00,53.4,48.0,30.07,South,172,0.0,0.0,82,0.00,RA,,0.06,WeatherDisplay:10.37,2013-10-02 22:05:00,
2013-10-02 15:10:00,53.5,47.5,30.06,SSE,163,0.0,0.0,80,0.00,RA,,0.06,WeatherDisplay:10.37,2013-10-02 22:10:00,
2013-10-02 15:20:00,53.8,48.4,30.06,East,81,0.0,0.0,82,0.00,RA,,0.06,WeatherDisplay:10.37,2013-10-02 22:20:00,
2013-10-02 15:30:00,54.2,47.1,30.06,East,96,1.0,5.0,77,0.00,RA,,0.06,WeatherDisplay:10.37,2013-10-02 22:30:00,
2013-10-02 15:40:00,54.0,48.0,30.06,ENE,72,1.0,3.0,80,0.00,RA,,0.06,WeatherDisplay:10.37,2013-10-02 22:40:00,
2013-10-02 15:50:00,54.3,47.6,30.06,ESE,104,0.0,0.0,78,0.00,RA,,0.06,WeatherDisplay:10.37,2013-10-02 22:50:00,
2013-10-02 16:00:00,54.0,48.0,30.07,East,85,0.0,3.0,80,0.00,RA,,0.06,WeatherDisplay:10.37,2013-10-02 23:00:00,
2013-10-02 16:05:00,54.0,47.6,30.07,ENE,67,0.0,1.0,79,0.00,RA,,0.06,WeatherDisplay:10.37,2013-10-02 23:05:00,
2013-10-02 16:10:00,53.9,47.5,30.07,NE,52,0.0,0.0,79,0.00,RA,,0.06,WeatherDisplay:10.37,2013-10-02 23:10:00,
2013-10-02 16:20:00,53.7,48.3,30.07,East,90,0.0,0.0,82,0.00,RA,,0.06,WeatherDisplay:10.37,2013-10-02 23:20:00,
2013-10-02 16:30:00,53.6,48.2,30.07,East,82,0.0,0.0,82,0.00,RA,,0.06,WeatherDisplay:10.37,2013-10-02 23:30:00,
2013-10-02 16:40:00,53.9,48.9,30.07,ENE,68,0.0,0.0,83,0.00,RA,,0.06,WeatherDisplay:10.37,2013-10-02 23:40:00,
2013-10-02 16:50:00,53.8,47.8,30.07,ENE,58,0.0,0.0,80,0.00,RA,,0.06,WeatherDisplay:10.37,2013-10-02 23:50:00,
2013-10-02 17:00:00,54.2,48.2,30.07,South,185,0.0,0.0,80,0.00,RA,,0.06,WeatherDisplay:10.37,2013-10-03 00:00:00,
2013-10-02 17:05:00,54.3,48.3,30.07,ESE,112,0.0,0.0,80,0.00,RA,,0.06,WeatherDisplay:10.37,2013-10-03 00:05:00,
2013-10-02 17:10:00,54.2,48.2,30.07,ENE,71,0.0,0.0,80,0.00,RA,,0.06,WeatherDisplay:10.37,2013-10-03 00:10:00,
2013-10-02 17:20:00,54.2,47.8,30.07,South,180,0.0,0.0,79,0.00,RA,,0.06,WeatherDisplay:10.37,2013-10-03 00:20:00,
2013-10-02 17:30:00,54.0,47.7,30.07,SW,232,0.0,0.0,79,0.00,RA,,0.06,WeatherDisplay:10.37,2013-10-03 00:30:00,
2013-10-02 17:35:00,54.0,47.6,30.07,NNE,12,0.0,0.0,79,0.00,RA,,0.06,WeatherDisplay:10.37,2013-10-03 00:35:00,
2013-10-02 17:40:00,53.9,48.2,30.07,NNE,28,0.0,0.0,81,0.00,RA,,0.06,WeatherDisplay:10.37,2013-10-03 00:40:00,
2013-10-02 17:50:00,53.2,48.5,30.07,North,9,0.0,0.0,84,0.00,RA,,0.06,WeatherDisplay:10.37,2013-10-03 00:50:00,
2013-10-02 18:00:00,52.5,48.4,30.08,NW,316,0.0,0.0,86,0.00,RA,,0.06,WeatherDisplay:10.37,2013-10-03 01:00:00,
2013-10-02 18:05:00,52.2,48.4,30.08,West,259,0.0,0.0,87,0.03,RA,,0.09,WeatherDisplay:10.37,2013-10-03 01:05:00,
2013-10-02 18:10:00,51.8,48.1,30.08,SW,219,0.0,0.0,87,0.04,RA,,0.13,WeatherDisplay:10.37,2013-10-03 01:10:00,
2013-10-02 18:20:00,51.3,48.2,30.09,East,96,0.0,0.0,89,0.01,RA,,0.16,WeatherDisplay:10.37,2013-10-03 01:20:00,
2013-10-02 18:30:00,50.9,48.1,30.09,East,82,0.0,0.0,90,0.02,RA,,0.18,WeatherDisplay:10.37,2013-10-03 01:30:00,
2013-10-02 18:40:00,50.5,48.0,30.09,East,95,0.0,0.0,91,0.02,RA,,0.21,WeatherDisplay:10.37,2013-10-03 01:40:00,
2013-10-02 18:50:00,50.0,47.5,30.09,ESE,106,0.0,0.0,91,0.01,RA,,0.22,WeatherDisplay:10.37,2013-10-03 01:50:00,
2013-10-02 19:00:00,49.6,47.4,30.09,ESE,106,0.0,0.0,92,0.00,RA,,0.22,WeatherDisplay:10.37,2013-10-03 02:00:00,
2013-10-02 19:05:00,49.5,47.3,30.09,ESE,106,0.0,0.0,92,0.00,RA,,0.22,WeatherDisplay:10.37,2013-10-03 02:05:00,
2013-10-02 19:10:00,49.5,47.3,30.09,ESE,105,0.0,0.0,92,0.00,RA,,0.22,WeatherDisplay:10.37,2013-10-03 02:10:00,
2013-10-02 19:20:00,49.3,47.1,30.10,ESE,106,0.0,0.0,92,0.00,RA,,0.22,WeatherDisplay:10.37,2013-10-03 02:20:00,
2013-10-02 19:30:00,49.2,47.3,30.10,ESE,106,0.0,0.0,93,0.00,RA,,0.22,WeatherDisplay:10.37,2013-10-03 02:30:00,
2013-10-02 19:35:00,49.1,47.2,30.10,ESE,106,0.0,0.0,93,0.00,RA,,0.22,WeatherDisplay:10.37,2013-10-03 02:35:00,
2013-10-02 19:40:00,49.1,47.2,30.10,ESE,106,0.0,0.0,93,0.00,RA,,0.22,WeatherDisplay:10.37,2013-10-03 02:40:00,
2013-10-02 19:50:00,49.1,47.1,30.11,West,277,0.0,0.0,93,0.00,RA,,0.22,WeatherDisplay:10.37,2013-10-03 02:50:00,
2013-10-02 20:00:00,49.0,47.1,30.11,West,279,0.0,0.0,93,0.00,RA,,0.22,WeatherDisplay:10.37,2013-10-03 03:00:00,
2013-10-02 20:05:00,49.0,47.1,30.11,West,279,0.0,0.0,93,0.00,RA,,0.22,WeatherDisplay:10.37,2013-10-03 03:05:00,
2013-10-02 20:10:00,49.0,47.1,30.12,West,279,0.0,0.0,93,0.01,RA,,0.23,WeatherDisplay:10.37,2013-10-03 03:10:00,
2013-10-02 20:20:00,48.9,47.0,30.12,West,279,0.0,0.0,93,0.00,RA,,0.23,WeatherDisplay:10.37,2013-10-03 03:20:00,
2013-10-02 20:30:00,48.9,47.3,30.12,West,279,0.0,0.0,94,0.00,RA,,0.23,WeatherDisplay:10.37,2013-10-03 03:30:00,
2013-10-02 20:40:00,49.1,47.4,30.13,NE,40,0.0,0.0,94,0.00,RA,,0.23,WeatherDisplay:10.37,2013-10-03 03:40:00,
2013-10-02 20:50:00,48.9,47.2,30.13,SE,124,0.0,0.0,94,0.00,RA,,0.24,WeatherDisplay:10.37,2013-10-03 03:50:00,
2013-10-02 21:00:00,48.8,47.1,30.13,SE,124,0.0,0.0,94,0.00,RA,,0.24,WeatherDisplay:10.37,2013-10-03 04:00:00,
2013-10-02 21:05:00,48.7,47.1,30.13,SE,124,0.0,0.0,94,0.00,RA,,0.24,WeatherDisplay:10.37,2013-10-03 04:05:00,
2013-10-02 21:10:00,48.7,47.0,30.13,SE,124,0.0,0.0,94,0.00,RA,,0.24,WeatherDisplay:10.37,2013-10-03 04:10:00,
2013-10-02 21:20:00,48.5,46.8,30.13,SE,124,0.0,0.0,94,0.00,RA,,0.24,WeatherDisplay:10.37,2013-10-03 04:20:00,
2013-10-02 21:25:00,48.4,46.8,30.13,ESE,123,0.0,0.0,94,0.00,RA,,0.24,WeatherDisplay:10.37,2013-10-03 04:25:00,
2013-10-02 21:30:00,48.4,46.8,30.13,ESE,123,0.0,0.0,94,0.00,RA,,0.24,WeatherDisplay:10.37,2013-10-03 04:30:00,
2013-10-02 21:35:00,48.3,46.7,30.13,ESE,123,0.0,0.0,94,0.00,RA,,0.24,WeatherDisplay:10.37,2013-10-03 04:35:00,
2013-10-02 21:40:00,48.3,46.7,30.13,SE,124,0.0,0.0,94,0.00,RA,,0.24,WeatherDisplay:10.37,2013-10-03 04:40:00,
2013-10-02 21:45:00,48.3,46.7,30.14,SE,124,0.0,0.0,94,0.00,RA,,0.24,WeatherDisplay:10.37,2013-10-03 04:45:00,
2013-10-02 21:50:00,48.3,46.7,30.14,SE,131,0.0,0.0,94,0.00,RA,,0.24,WeatherDisplay:10.37,2013-10-03 04:50:00,
2013-10-02 22:00:00,48.1,46.5,30.14,SSE,151,0.0,0.0,94,0.00,RA,,0.24,WeatherDisplay:10.37,2013-10-03 05:00:00,
2013-10-02 22:05:00,48.1,46.5,30.14,SSE,150,0.0,0.0,94,0.00,RA,,0.24,WeatherDisplay:10.37,2013-10-03 05:05:00,
2013-10-02 22:10:00,48.1,46.5,30.15,SSE,150,0.0,0.0,94,0.00,RA,,0.24,WeatherDisplay:10.37,2013-10-03 05:10:00,
2013-10-02 22:20:00,47.9,46.3,30.15,SSE,151,0.0,0.0,94,0.00,RA,,0.24,WeatherDisplay:10.37,2013-10-03 05:20:00,
2013-10-02 22:30:00,47.9,46.3,30.16,SSE,151,0.0,0.0,94,0.00,RA,,0.24,WeatherDisplay:10.37,2013-10-03 05:30:00,
2013-10-02 22:40:00,47.9,46.3,30.16,SSE,151,0.0,0.0,94,0.00,RA,,0.24,WeatherDisplay:10.37,2013-10-03 05:40:00,
2013-10-02 22:50:00,47.9,46.3,30.16,SSE,151,0.0,0.0,94,0.00,RA,,0.24,WeatherDisplay:10.37,2013-10-03 05:50:00,
2013-10-02 23:00:00,47.9,46.3,30.17,SSE,151,0.0,0.0,94,0.00,RA,,0.24,WeatherDisplay:10.37,2013-10-03 06:00:00,
2013-10-02 23:05:00,47.9,46.3,30.17,SSE,151,0.0,0.0,94,0.00,RA,,0.24,WeatherDisplay:10.37,2013-10-03 06:05:00,
2013-10-02 23:10:00,47.9,46.3,30.17,SSE,151,0.0,0.0,94,0.00,RA,,0.24,WeatherDisplay:10.37,2013-10-03 06:10:00,
2013-10-02 23:20:00,47.8,46.2,30.17,SSE,149,0.0,0.0,94,0.00,RA,,0.24,WeatherDisplay:10.37,2013-10-03 06:20:00,
2013-10-02 23:30:00,47.8,46.2,30.17,SSE,150,0.0,0.0,94,0.00,RA,,0.24,WeatherDisplay:10.37,2013-10-03 06:30:00,
2013-10-02 23:40:00,47.8,46.2,30.18,SSE,151,0.0,0.0,94,0.00,RA,,0.24,WeatherDisplay:10.37,2013-10-03 06:40:00,
2013-10-02 23:50:00,47.7,46.1,30.18,SSE,150,0.0,0.0,94,0.00,RA,,0.24,WeatherDisplay:10.37,2013-10-03 06:50:00,